Printer-friendly version
Follow the MPC on Twitter Follow the MPC on Facebook The MPC blog
Minor Planet Center

MPEC 2009-C27 : 2009 CV

The following Minor Planet Electronic Circular may be linked-to from your own Web pages, but must not otherwise be redistributed electronically.

A form allowing access to any MPEC is at the bottom of this page.


Read MPEC 2009-C26 Read MPEC 2009-C28


M.P.E.C. 2009-C27                                Issued 2009 Feb. 3, 14:44 UT

     The Minor Planet Electronic Circulars contain information on unusual
         minor planets and routine data on comets.  They are published
   on behalf of Commission 20 of the International Astronomical Union by the
          Minor Planet Center, Smithsonian Astrophysical Observatory,
                          Cambridge, MA 02138, U.S.A.

             Prepared using the Tamkin Foundation Computer Network

                              MPC@CFA.HARVARD.EDU
          URL http://www.cfa.harvard.edu/iau/mpc.html  ISSN 1523-6714

                                    2009 CV

Observations:
     K09C00V* C2009 02 02.91531 09 36 26.23 +32 46 27.2          18.6 V EC027198
     K09C00V  C2009 02 02.92058 09 36 26.32 +32 46 42.5          18.7 V EC027198
     K09C00V  C2009 02 02.93111 09 36 26.51 +32 47 12.6          18.7 V EC027198
     K09C00V  C2009 02 02.94165 09 36 26.69 +32 47 42.3          18.5 V EC027198
     K09C00V  C2009 02 02.96272 09 36 27.05 +32 48 40.9          18.7 V EC027198
     K09C00V  C2009 02 02.97325 09 36 27.20 +32 49 09.8          18.7 V EC027198
     K09C00V  C2009 02 02.98378 09 36 27.35 +32 49 38.6          18.7 V EC027198
     K09C00V  C2009 02 02.98905 09 36 27.42 +32 49 52.8          18.7 V EC027198
     K09C00V  C2009 02 03.00485 09 36 27.64 +32 50 35.2          18.9 V EC027198
     K09C00V  C2009 02 03.01013 09 36 27.72 +32 50 49.4          18.7 V EC027198
     K09C00V  C2009 02 03.06827 09 36 28.55 +32 53 19.4          18.6 V EC027198
     K09C00V  C2009 02 03.07459 09 36 28.66 +32 53 35.3          18.7 V EC027198
     K09C00V  C2009 02 03.07985 09 36 28.75 +32 53 48.5          18.8 V EC027198
     K09C00V  C2009 02 03.08308 09 36 28.83 +32 53 56.4          18.8 V EC027198
     K09C00V  C2009 02 03.08626 09 36 28.90 +32 54 04.3          18.7 V EC027198
     K09C00V  C2009 02 03.09263 09 36 29.01 +32 54 20.1          18.8 V EC027198
     K09C00V  C2009 02 03.37998 09 36 50.68 +33 08 12.1          18.5 R EC027H10
     K09C00V  C2009 02 03.38245 09 36 50.69 +33 08 18.2          18.9 R EC027H10
     K09C00V  C2009 02 03.38503 09 36 50.67 +33 08 25.0          18.5 R EC027H10
     K09C00V  C2009 02 03.38762 09 36 50.65 +33 08 30.9          18.4 R EC027H10
     K09C00V  C2009 02 03.39181 09 36 50.71 +33 08 41.9          18.5 R EC027H10
     K09C00V  C2009 02 03.45064 09 36 52.20 +33 11 12.7          19.0 V EC027G96
     K09C00V  C2009 02 03.45571 09 36 52.27 +33 11 24.8          19.0 V EC027G96
     K09C00V  C2009 02 03.46074 09 36 52.38 +33 11 36.7          18.9 V EC027G96
     K09C00V %C2009 02 03.46367 09 36 51.74 +33 11 37.2          18.6 R EC027H06
     K09C00V %C2009 02 03.46607 09 36 51.80 +33 11 42.8          18.8 R EC027H06
     K09C00V %C2009 02 03.46908 09 36 51.90 +33 11 49.8          18.7 R EC027H06
     K09C00V 5C2009 02 03.53970 09 36 55.92 +33 14 45.0          18.6 R EC027673
     K09C00V 5C2009 02 03.54468 09 36 56.13 +33 14 56.4                 EC027673
     K09C00V 5C2009 02 03.54977 09 36 56.38 +33 15 07.8                 EC027673
     K09C00V 5C2009 02 03.55486 09 36 56.60 +33 15 19.1                 EC027673

Observer details:
198 Wildberg.  Observer R. Apitzsch.  0.35-m f/4.2 reflector + CCD.
673 Table Mountain Observatory, Wrightwood.  Observer J. Young.  0.61-m f/16
    Cassegrain + CCD.
G96 Mt. Lemmon Survey.  Observer A. Boattini.  Measurers E. C. Beshore,
    A. Boattini, G. J. Garradd, A. R. Gibbs, A. D. Grauer, R. E. Hill,
    R. A. Kowalski, S. M. Larson, R. H. McNaught.  1.5-m reflector + CCD.
H06 RAS Observatory, Mayhill.  Observers E. Guido, G. Sostero, P. Camilleri.
    0.25-m f/3.4 reflector + CCD.
H10 Tzec Maun Observatory, Mayhill.  Observer E. Schwab.  0.36-m f/3.8
    Maksutov-Newtonian + CCD.

Orbital elements:
2009 CV                                                  Earth MOID = 0.0121 AU
Epoch 2008 Nov. 30.0 TT = JDT 2454800.5                 MPC
M 252.18511              (2000.0)            P               Q
n   0.83650822     Peri.  171.12756     -0.91814911     +0.39615616
a   1.1155505      Node    32.21416     -0.36444235     -0.83648068
e   0.1529347      Incl.    0.84975     -0.15551200     -0.37862959
P   1.18           H   24.4           G   0.15           U   8
Residuals in seconds of arc
090202 198  0.4+  0.4-    090203 198  0.0   0.0     090203 G96  0.2-  0.1-
090202 198  0.1+  0.1-    090203 198  0.1-  0.0     090203 G96  0.0   0.3-
090202 198  0.2-  0.1+    090203 198  0.1+  0.1-    090203 H06  0.0   0.2+
090202 198  0.4-  0.1+    090203 198  0.2+  0.1-    090203 H06  0.0   0.2+
090202 198  0.1-  0.1+    090203 198  0.1-  0.1-    090203 H06  0.2+  0.1+
090202 198  0.2-  0.0     090203 H10  0.3+  0.2+    090203 673  0.1+  0.3+
090202 198  0.1-  0.2+    090203 H10  0.4+  0.0     090203 673  0.1-  0.3+
090202 198  0.1-  0.1+    090203 H10  0.0   0.2+    090203 673  0.0   0.0
090203 198  0.1+  0.1+    090203 H10  0.4-  0.5-    090203 673  0.4-  0.4-
090203 198  0.2+  0.3+    090203 H10  0.1+  0.1-
090203 198  0.0   0.0     090203 G96  0.0   0.0

Ephemeris:
2009 CV                  a,e,i = 1.12, 0.15, 1                   q = 0.9449
Date    TT    R. A. (2000) Decl.     Delta      r     Elong.  Phase     V
2009 01 29    09 31.58   +29 45.6    0.0623   1.045   164.3    14.8    19.3
2009 01 31    09 33.32   +30 52.1    0.0571   1.040   163.9    15.2    19.1
2009 02 02    09 35.32   +32 08.5    0.0521   1.035   163.0    16.1    18.9
2009 02 04    09 37.71   +33 37.3    0.0473   1.031   161.6    17.6    18.8
2009 02 06    09 40.68   +35 22.1    0.0425   1.026   159.7    19.5    18.6
2009 02 08    09 44.50   +37 28.1    0.0379   1.021   157.2    21.9    18.4
2009 02 10    09 49.63   +40 03.1    0.0335   1.017   154.2    25.0    18.2
2009 02 12    09 56.83   +43 18.5    0.0291   1.013   150.3    28.9    18.0
2009 02 14    10 07.66   +47 31.9    0.0250   1.008   145.4    33.8    17.8
2009 02 16    10 25.63   +53 08.5    0.0211   1.004   138.9    40.3    17.6
2009 02 18    11 00.60   +60 37.6    0.0176   1.000   130.0    49.2    17.5
2009 02 20    12 28.16   +69 32.5    0.0146   0.996   117.7    61.6    17.4
2009 02 22    16 07.44   +72 07.3    0.0127   0.992   100.8    78.5    17.6
2009 02 24    18 50.21   +58 34.4    0.0123   0.988    81.0    98.3    18.4
2009 02 26    19 48.46   +40 56.4    0.0134   0.984    63.0   116.4    19.6
2009 02 28    20 14.72   +26 35.9    0.0158   0.981    50.1   129.2    21.0

Timothy B. Spahr             (C) Copyright 2009 MPC           M.P.E.C. 2009-C27

Read MPEC 2009-C26 Read MPEC 2009-C28


MPEC number:

Enter an MPEC number in one of the following forms:

  • 1997-B01 (the full form)
  • J97B01 (the packed version of the full form)
  • B01 (the abbreviated form)

Valid HTML 4.01!